Weather History for Waterloo, IA

Change the Weather History Date:

Wednesday, February 12, 2014

  Actual Average Record
Temperature  
Mean Temperature 10 °F 22 °F  
Max Temperature 22 °F 31 °F 63 °F (1990)
Min Temperature -2 °F 13 °F -22 °F (1986)
Degree Days  
Heating Degree Days 55 43  
Month to date heating degree days 751 531  
Since 1 July heating degree days 5602 4785  
Cooling Degree Days 0 0  
Month to date cooling degree days 0 0  
Year to date cooling degree days 0 0  
Moisture  
Dew Point 8 °F    
Average Humidity 83    
Maximum Humidity 100    
Minimum Humidity 66    
Precipitation  
Precipitation 0.13 in 0.04 in 0.22 in (1896)
Month to date precipitation 0.43 0.37  
Year to date precipitation 1.09 1.20  
Snow  
Snow 1.40 in 0.30 in 2.50 in (2008)
Month to date snowfall 7.3 3.6  
Since 1 July snowfall 38.6 25.1  
Snow Depth 5.00 in    
Sea Level Pressure  
Sea Level Pressure 30.09 in    
Wind  
Wind Speed 6 mph (SSE)    
Max Wind Speed 18 mph    
Max Gust Speed 23 mph    
Visibility 4 miles    
Events Snow    
T = Trace of Precipitation, MM = Missing Value Source: NWS Daily Summary

Daily Weather History Graph

Daily Weather History Graph

Search for Another Location

Airport:

Trip Planner

Search our weather history database for the weather conditions in past years. The results will help you decide how hot, cold, wet, or windy it might be!

Date:

Astronomy

Feb. 12, 2014 Rise Set
Actual Time 7:10 AM CST 5:37 PM CST
Civil Twilight 6:41 AM CST 6:06 PM CST
Nautical Twilight 6:08 AM CST 6:40 PM CST
Astronomical Twilight 5:35 AM CST 7:12 PM CST
Moon 3:51 PM CST (2/12) 5:28 AM CST (2/12)
Length of Visible Light 11h 25m
Length of Day
10h 27m
Waxing Gibbous, 95% of the Moon is Illuminated
Feb 12
Waxing Gibbous
Feb 14
Full
Feb 22
Last Quarter
Mar 1
New
Mar 8
First Quarter

Hourly Weather History & Observations

Time (CST) Temp. Windchill Dew Point Humidity Pressure Visibility Wind Dir Wind Speed Gust Speed Precip Events Conditions
12:54 AM 10.9 °F -2.6 °F 1.9 °F 67% 30.25 in 10.0 mi South 10.4 mph - N/A   Overcast
1:54 AM 10.9 °F -4.1 °F 1.9 °F 67% 30.22 in 10.0 mi South 12.7 mph - N/A   Overcast
2:54 AM 12.0 °F -5.1 °F 3.9 °F 70% 30.19 in 10.0 mi South 17.3 mph - N/A   Overcast
3:54 AM 12.0 °F -4.0 °F 3.9 °F 70% 30.17 in 10.0 mi South 15.0 mph - N/A   Overcast
4:33 AM 12.9 °F 0.7 °F 5.0 °F 71% 30.13 in 2.5 mi South 9.2 mph - 0.00 in Snow Light Snow
4:45 AM 12.0 °F -0.4 °F 7.0 °F 80% 30.14 in 1.0 mi South 9.2 mph - 0.00 in Snow Light Snow
4:54 AM 12.0 °F 0.5 °F 7.0 °F 80% 30.19 in 1.0 mi South 8.1 mph - 0.01 in Snow Light Snow
5:19 AM 12.0 °F -1.3 °F 8.1 °F 84% 30.11 in 1.0 mi South 10.4 mph - 0.02 in Snow Light Snow
5:27 AM 12.0 °F -1.3 °F 9.0 °F 88% 30.11 in 0.8 mi South 10.4 mph - 0.02 in Snow Light Snow
5:33 AM 12.0 °F -1.3 °F 9.0 °F 88% 30.10 in 1.0 mi South 10.4 mph - 0.03 in Snow Light Snow
5:54 AM 12.9 °F -0.2 °F 9.0 °F 84% 30.17 in 2.5 mi South 10.4 mph - 0.03 in Snow Light Snow
6:04 AM 12.9 °F -0.2 °F 9.0 °F 84% 30.11 in 0.8 mi SSW 10.4 mph - 0.01 in Snow Light Snow
6:18 AM 12.9 °F 2.6 °F 9.0 °F 84% 30.11 in 1.2 mi South 6.9 mph - 0.02 in Snow Light Snow
6:27 AM 12.9 °F 1.6 °F 9.0 °F 84% 30.10 in 3.0 mi South 8.1 mph - 0.02 in Snow Light Snow
6:47 AM 12.9 °F 1.6 °F 9.0 °F 84% 30.10 in 3.0 mi South 8.1 mph - 0.02 in Snow Light Snow
6:52 AM 12.2 °F 0.7 °F 8.6 °F 85% 30.10 in 2.5 mi South 8.1 mph - 0.02 in Snow Light Snow
6:54 AM 12.9 °F 1.6 °F 9.0 °F 84% 30.16 in 2.0 mi South 8.1 mph - 0.02 in Snow Light Snow
7:02 AM 12.9 °F 1.6 °F 9.0 °F 84% 30.10 in 2.0 mi South 8.1 mph - 0.01 in Snow Light Snow
7:05 AM 12.9 °F 2.6 °F 9.0 °F 84% 30.10 in 1.8 mi South 6.9 mph - 0.01 in Snow Light Snow
7:24 AM 12.9 °F 3.8 °F 10.0 °F 88% 30.11 in 0.8 mi South 5.8 mph - 0.02 in Snow Light Snow
7:34 AM 12.9 °F 5.2 °F 10.0 °F 88% 30.11 in 1.0 mi South 4.6 mph - 0.03 in Snow Light Snow
7:54 AM 12.9 °F 5.2 °F 10.0 °F 88% 30.17 in 1.5 mi South 4.6 mph - 0.03 in Snow Light Snow
8:01 AM 12.9 °F 5.2 °F 10.0 °F 88% 30.11 in 2.0 mi South 4.6 mph - 0.00 in Snow Light Snow
8:11 AM 12.9 °F 3.8 °F 10.0 °F 88% 30.11 in 1.8 mi South 5.8 mph - 0.00 in Snow Light Snow
8:18 AM 12.9 °F 3.8 °F 10.0 °F 88% 30.11 in 2.0 mi South 5.8 mph - 0.00 in Snow Light Snow
8:27 AM 12.9 °F 2.6 °F 10.0 °F 88% 30.11 in 1.5 mi South 6.9 mph - 0.00 in Snow Light Snow
8:42 AM 14.0 °F 5.1 °F 10.0 °F 84% 30.11 in 1.2 mi South 5.8 mph - 0.01 in Snow Light Snow
8:54 AM 14.0 °F 3.9 °F 10.0 °F 84% 30.17 in 1.0 mi South 6.9 mph - 0.01 in Snow Light Snow
9:21 AM 14.0 °F 5.1 °F 10.9 °F 88% 30.11 in 2.0 mi South 5.8 mph - 0.01 in Snow Light Snow
9:39 AM 14.0 °F 3.9 °F 10.9 °F 88% 30.10 in 1.2 mi South 6.9 mph - 0.01 in Snow Light Snow
9:54 AM 14.0 °F 5.1 °F 10.9 °F 88% 30.17 in 0.8 mi South 5.8 mph - 0.02 in Snow Light Snow
10:21 AM 15.1 °F 4.2 °F 10.9 °F 84% 30.11 in 1.5 mi South 8.1 mph - 0.00 in Snow Light Snow
10:31 AM 15.1 °F 4.2 °F 10.9 °F 84% 30.10 in 2.5 mi South 8.1 mph - 0.01 in Snow Light Snow
10:38 AM 15.1 °F 4.2 °F 10.9 °F 84% 30.09 in 3.0 mi South 8.1 mph - 0.01 in Snow Light Snow
10:54 AM 16.0 °F 6.3 °F 10.9 °F 81% 30.16 in 4.0 mi SSW 6.9 mph - 0.01 in   Haze
11:54 AM 19.0 °F 13.9 °F 12.0 °F 74% 30.15 in 5.0 mi WSW 3.5 mph - N/A   Haze
12:54 PM 21.9 °F - 12.0 °F 66% 30.12 in 10.0 mi Calm Calm - N/A   Partly Cloudy
1:54 PM 19.0 °F 12.3 °F 12.9 °F 77% 30.09 in 9.0 mi East 4.6 mph - N/A   Mostly Cloudy
2:16 PM 19.9 °F 13.4 °F 12.9 °F 74% 30.04 in 10.0 mi East 4.6 mph - N/A   Scattered Clouds
2:54 PM 19.0 °F 11.1 °F 12.0 °F 74% 30.07 in 10.0 mi ESE 5.8 mph - N/A   Clear
3:54 PM 17.1 °F 8.7 °F 10.9 °F 77% 30.11 in 9.0 mi NNE 5.8 mph - N/A   Scattered Clouds
4:02 PM 17.1 °F 8.7 °F 10.9 °F 77% 30.06 in 9.0 mi North 5.8 mph - N/A   Mostly Cloudy
4:29 PM 14.0 °F 5.1 °F 10.0 °F 84% 30.03 in 9.0 mi East 5.8 mph - N/A   Scattered Clouds
4:54 PM 15.1 °F 6.4 °F 9.0 °F 77% 30.07 in 8.0 mi ESE 5.8 mph - N/A   Clear
5:54 PM 10.0 °F 0.4 °F 6.1 °F 84% 30.04 in 8.0 mi ESE 5.8 mph - N/A   Clear
6:54 PM 14.0 °F 5.1 °F 10.0 °F 84% 30.04 in 6.0 mi SSE 5.8 mph - N/A   Clear
7:44 PM 3.9 °F - 3.0 °F 96% 30.00 in 2.5 mi Calm Calm - N/A   Clear
7:52 PM 3.2 °F - 1.4 °F 92% 29.99 in 3.0 mi Calm Calm - N/A   Clear
7:54 PM 1.0 °F - 1.0 °F 100% 30.06 in 2.5 mi Calm Calm - N/A   Clear
8:06 PM 1.9 °F -5.6 °F -0.9 °F 88% 30.00 in 3.0 mi East 3.5 mph - N/A   Clear
8:20 PM 1.9 °F -5.6 °F -0.0 °F 91% 29.99 in 2.5 mi ESE 3.5 mph - N/A   Clear
8:54 PM 3.9 °F - 1.0 °F 88% 30.06 in 2.5 mi Calm Calm - N/A   Clear
9:12 PM 1.9 °F - -0.9 °F 88% 30.00 in 1.0 mi Calm Calm - N/A   Clear
9:29 PM -2.0 °F -12.2 °F -5.1 °F 87% 29.98 in 2.5 mi East 4.6 mph - N/A   Clear
9:36 PM -0.9 °F -11.0 °F -4.0 °F 87% 29.98 in 4.0 mi ESE 4.6 mph - N/A   Clear
9:54 PM 1.9 °F -5.6 °F -0.9 °F 88% 30.03 in 4.0 mi SE 3.5 mph - N/A   Clear
10:46 PM 10.0 °F 1.8 °F 8.1 °F 92% 29.92 in 4.0 mi SSE 4.6 mph - N/A   Mostly Cloudy
10:54 PM 10.0 °F 0.4 °F 8.1 °F 92% 29.97 in 4.0 mi SE 5.8 mph - N/A   Mostly Cloudy
11:54 PM 15.1 °F 4.2 °F 12.0 °F 88% 29.94 in 5.0 mi SSE 8.1 mph - N/A   Overcast